Location: Unspecified
(0.0000°N, 0.0000°E)
Time: 03:52:17
(UTC+02:00)

AO-40 - Visible Passes

Search period start: 27 September 2016 00:00
Search period end: 07 October 2016 00:00
Orbit: 992 x 58828 km, 7.2° (Epoch: 25 September)

Date Brightness Start Highest point End Pass type
(mag) Time Alt. Az. Time Alt. Az. Time Alt. Az.
27 Sep ? 05:54:07 34° WNW 07:25:23 84° WNW 14:47:54 10° W visible
28 Sep ? 01:01:02 21° E 01:01:02 21° E 19:35:37 10° E visible
29 Sep ? 04:42:51 10° E 11:48:09 83° S 14:25:48 10° E visible
01 Oct ? 05:28:42 42° WNW 07:09:25 88° NNW 14:38:57 10° W visible
02 Oct ? 00:35:36 16° E 00:35:36 16° E 19:07:59 10° E visible
03 Oct ? 04:33:55 10° E 11:51:54 82° SSE 13:57:45 10° E visible
05 Oct ? 05:03:20 51° WNW 05:54:16 86° NNE 14:29:58 10° W visible
06 Oct ? 00:10:15 11° E 00:10:15 11° E 18:40:21 10° E visible
